Location: Unspecified
(35.6961°N, 0.0000°E)
Time: 02:37:51
(UTC+00:00)

NOAA 15 - Visible Passes

Search period start: 18 June 2019 00:00
Search period end: 28 June 2019 00:00
Orbit: 798 x 812 km, 98.7° (Epoch: 17 June)

Date Brightness Start Highest point End Pass type
(mag) Time Alt. Az. Time Alt. Az. Time Alt. Az.
19 Jun 7.3 19:46:50 10° SW 19:49:56 16° W 19:53:03 10° WNW visible
23 Jun 7.3 19:46:21 10° SW 19:49:30 16° W 19:52:40 10° NW visible
27 Jun 7.3 19:45:52 10° SW 19:49:04 16° W 19:52:18 10° NW visible
